Location: Carrizalito
(10.3833°N, 67.0217°W)
Time: 22:55:57
(UTC+00:00)

Meteor 1-11 Rocket - Pass Details

Date: 10 July 2022
Orbit: 830 x 916 km, 81.2° (Epoch: 16 August)

Event Time Altitude Azimuth Distance (km) Brightness Sun altitude
Exits shadow 08:39:53 25° 291° (WNW) 1,734 5.0 -21.4°
Drops below altitude 10° 08:43:52 10° 333° (NNW) 2,583 6.2 -20.6°
Sets 08:46:43 0° 345° (NNW) 3,513 7.1 -19.9°
